Voltar ao catálogo

SL-12 DEB *

LostHEO
NORAD 21623·DEBRIS·🇷🇺 Russia

Lançado Apr 24, 1987 de Baikonur Cosmodrome

Loading…

Próximas Passagens (próximas 24 horas)

TLE

ObsoletoSource: Space-Track

Época: Oct 20, 2021, 23:14 UTC

1 21623U 87036L   21293.96808160  .00001126  00000-0  70861-3 0  9998
2 21623  62.7342 142.2841 3038383 244.1303  81.6820  8.86256666963317

Acompanhe SL-12 DEB * em tempo real com AllMySat

Download on the App Store